sat.trackr.live / text

‹ back to catalog

STARLINK-31215

NORAD 58872 · 2024-019V

PAYLOAD ACTIVE UNKNOWN

§ Identity

Operator
Country
US
Launch date
2024-01-29
Launch site
AFETR
Launch vehicle
Mass (kg)
RCS (m²)

Purposes: comms

External: N2YO · Heavens-Above · Gunter

§ Orbital elements

Epoch: 2026-05-25T02:51:32.840640Z

Period
94.27 min
Inclination
42.9968°
Eccentricity
0.0000714
Mean motion
15.27586633 rev/d
Perigee alt
482.5 km
Apogee alt
483.5 km
Semi-major
6,861.2 km
B*
6.6438e-5
RAAN
177.0888°
Arg perigee
287.1881°
Mean anomaly
72.8892°
Rev number
13,075

§ Raw data

STARLINK-312151 58872U 24019V   26145.11913010  .00001567  00000+0  66438-4 0  99992 58872  42.9968 177.0888 0000714 287.1881  72.8892 15.27586633130754

JSON: /api/v1/satellites/58872 · /tle

For live sub-satellite position, see the globe view (requires WebGL).

§ Visibility from observer

Set your observer location to see the next 7 days of passes ≥ 10°. The values pass through the URL so the page stays shareable.

No JS? Fill the form by hand. The geolocation button needs JavaScript.